Regional Weather Roundup
Issued by NWS

Home | Current Version | Previous Version | Graphics & Text | Print | Product List | Glossary On
Versions: 1 2 3 4 5 6 7 8 9 10 11 12 13 14 15 16 17 18 19 20 21 22 23 24 25 26 27 28 29 30 31 32 33 34 35 36 37 38 39 40 41 42 43 44 45 46 47 48 49 50
000
ASUS43 KMKX 281400
RWRWI

WISCONSIN REGIONAL WEATHER ROUNDUP
NATIONAL WEATHER SERVICE MILWAUKEE/SULLIVAN WI
900 AM CDT TUE APR 28 2015

NOTE: "FAIR" INDICATES FEW OR NO CLOUDS BELOW 12,000 FEET WITH NO
SIGNIFICANT WEATHER AND/OR OBSTRUCTIONS TO VISIBILITY.

WIZ001-002-006>008-014>016-023>028-281500-
NORTHWEST WISCONSIN

CITY           SKY/WX    TMP DP  RH WIND       PRES   REMARKS
SUPERIOR ARPT  PTSUNNY   44  35  69 S3        30.17S
ASHLAND        SUNNY     54  32  43 SW7       30.17S
HAYWARD        SUNNY     53  27  36 S6        30.16F
SIREN          MOSUNNY   52  32  45 NW8       30.15F
CUMBERLAND     SUNNY     50  32  50 SE3       30.16S
RICE LAKE      SUNNY     48  33  55 SE5       30.18S
CHETEK         SUNNY     47  34  60 E7        30.17F
LADYSMITH      SUNNY     48  37  64 S5        30.19F
EAU CLAIRE     NOT AVBL
MENOMONIE      SUNNY     48  35  59 SE3       30.17F
NEW RICHMOND   MOSUNNY   55  32  42 S5        30.15F
OSCEOLA        MOSUNNY   54  38  53 W5        30.18S
$$

WIZ003>005-009-010-017-018-281500-
NORTH CENTRAL WISCONSIN

CITY           SKY/WX    TMP DP  RH WIND       PRES   REMARKS
MANITOWISH WTR SUNNY     46  33  62 SW3       30.16F
ARBOR VITAE    SUNNY     47  35  63 CALM      30.16F
WOODRUFF       SUNNY     47  35  63 CALM      30.16F
RHINELANDER    SUNNY     48  34  58 VRB5      30.17F
EAGLE RIVER    SUNNY     45  32  60 SW5       30.16F
LAND O LAKES   SUNNY     48  33  57 CALM      30.17S
PHILLIPS       MOSUNNY   47  35  63 S3        30.16F
TOMAHAWK       SUNNY     45  34  65 CALM      30.18F
MEDFORD        SUNNY     46  35  67 SW5       30.18S
MERRILL        SUNNY     44  36  74 CALM      30.18F
$$

WIZ029-030-035-036-043>047-281500-
CENTRAL WISCONSIN

CITY           SKY/WX    TMP DP  RH WIND       PRES   REMARKS
WAUSAU         SUNNY     47  35  63 W3        30.17F
MOSINEE        NOT AVBL
MARSHFIELD     SUNNY     49  35  58 S5        30.18S
STEVENS POINT  SUNNY     44  33  63 CALM      30.20R
WAUPACA        SUNNY     49  35  58 CALM      30.20R
WAUTOMA        NOT AVBL
WISC RAPIDS    SUNNY     49  32  52 CALM      30.20S
CAMP DOUGLAS   NOT AVBL
$$

WIZ011>013-019>022-031-037>040-048>050-281500-
NORTHEAST WISCONSIN

CITY           SKY/WX    TMP DP  RH WIND       PRES   REMARKS
ANTIGO         SUNNY     44  34  69 CALM      30.18S
SHAWANO        SUNNY     47  36  66 CALM      30.19F
OCONTO         SUNNY     47  34  62 N3        30.19S
STURGEON BAY   SUNNY     46  34  61 NE5       30.21S
GREEN BAY      SUNNY     49  35  58 N6        30.19S
MANITOWOC      NOT AVBL
APPLETON       MOSUNNY   46  34  61 NE6       30.19S
CLINTONVILLE   SUNNY     46  34  61 CALM      30.19S
OSHKOSH        SUNNY     48  33  56 N6        30.18F
$$

WIZ032>034-041-042-053>061-281500-
SOUTHWEST WISCONSIN

CITY           SKY/WX    TMP DP  RH WIND       PRES   REMARKS
LA CROSSE      SUNNY     51  37  58 VRB5      30.18S
SPARTA         SUNNY     48  35  61 CALM      30.19S
VIROQUA        SUNNY     48  36  61 SE3       30.18R
BOSCOBEL       SUNNY     51  37  58 N3        30.18F
PRAIRIE DU CHI SUNNY     46  37  69 CALM      30.17F
PLATTEVILLE    SUNNY     49  39  68 SE7       30.16S
$$

WIZ056-057-062-063-064-067-068-281500-
SOUTH CENTRAL WISCONSIN

CITY           SKY/WX    TMP DP  RH WIND       PRES   REMARKS
REEDSBURG      SUNNY     46  36  67 NE3       30.18S
BARABOO/DELLS  SUNNY     46  34  64 E5        30.18S
LONE ROCK      NOT AVBL
MINERAL POINT  SUNNY     50  34  53 SE7       30.16S
MADISON        MOSUNNY   49  34  56 NE5       30.18S
MIDDLETON      SUNNY     49  34  57 E5        30.19S
WATERTOWN      SUNNY     45  36  70 N5        30.17S
MONROE         SUNNY     46  34  61 E5        30.16F
JANESVILLE     SUNNY     48  36  61 E3        30.17S
$$

WIZ051-052-058>065-066-070>072-281500-
SOUTHEAST WISCONSIN

CITY           SKY/WX    TMP DP  RH WIND       PRES   REMARKS
MILWAUKEE      MOSUNNY   48  35  60 NE8       30.17F
WAUKESHA       SUNNY     45  34  65 NE8       30.18S
MILWAUKEE/TIMM SUNNY     46  34  61 N7        30.18S
RACINE         SUNNY     47  35  63 N10       30.17F
BURLINGTON     SUNNY     45  34  65 NE3       30.16F
KENOSHA        SUNNY     48  37  65 N6        30.16F
FOND DU LAC    SUNNY     48  36  63 NE8       30.18F
SHEBOYGAN      SUNNY     47  35  63 N12       30.17F
WEST BEND      SUNNY     45  32  61 N8        30.17S
JUNEAU         SUNNY     44  36  71 N6        30.19S
$$

LSZ147-162-281500-
LAKE SUPERIOR

STATION/POSITION TIME  TEMP    WIND        PRES    WAVE
                       AIR SEA DIR/SP/G            HT/PER
                 (UTC) (F)     (DEG/KT/KT) (MB)    (FT/S)
W MID LAKE BUOY  1250   38 33  180/  2/  2 1022.5F   0
DEVILS ISLAND    1300   37     230/  9/ 10 1022.3F
PORT WING        1300   38     280/  2/  2 1022.0
SAXON HARBOR     1340   43        CALM     1021.3R
$$

LMZ867-665-643>646-281500-
LAKE MICHIGAN

STATION/POSITION TIME  TEMP    WIND        PRES    WAVE
                       AIR SEA DIR/SP/G            HT/PER
                 (UTC) (F)     (DEG/KT/KT) (MB)    (FT/S)
CHAMBERS ISLAND  1300   44      40/  1/  2 1022.7R
NORTHPORT PIER   1300   40     320/  7/  9 1022.4R
SISTER BAY       1232   42     350/  9/ 10   N/A
KEWAUNEE LAKESHO 1300   44      10/  5/  9 1021.3R
SHEBOYGAN LAKESH 1300   42     350/  9/ 10 1022.5R
PORT WASHINGTON  1300   46     360/  6/  9 1022.4S
MILWAUKEE LAKESH 1300   44     360/  7/  9   N/A
KENOSHA   LAKESH 1300   42      20/ 11/ 12 1021.7R
$$

TC  - TEMPERATURE IN CELSIUS
VSB - VISIBILITY IN STATUTE MILES
WCI - WIND CHILL INDEX
HX  - HEAT INDEX




USA.gov is the U.S. government's official web portal to all federal, state and local government web resources and services.